Find Starlink 5989

NORAD ID: 56781 Int'l Des: 2023-078 Owner: SPXS Country: US Constellation: starlink operational
LEOCIRCULAR

当前视图

正在加载3D地球...

About Starlink 5989

Starlink 5989 (NORAD 56781) is a starlink constellation satellite (v1.5) launched May 31, 2023 by SPXS of US. It operates in LEO, CIRCULAR orbit with a mass of 305.00 kg.

即将过境

Passes for default location (London). Set your location on the main map for personalized predictions.

高度历史

Loading altitude history...

两行轨道根数

1 56781U 23078Q 26263.26353874 -.00000532 00000-0 -36762-4 0 9994
2 56781 69.9998 213.9382 0003339 267.6254 92.4523 14.98324365181827
Epoch: Sep 20, 2026 • Age: 24 hours

当前状态

高度 577.5 km
远地点 / 近地点 N/A
速度 7.57 km/s
星下点 -16.43°S, 110.93°E
发射日期 May 31, 2023
运行时间 3.3 years
类型 internet

技术详情

分类 Payload
质量 305.00 kg
干质量 290.00 kg
长度 0.20 m
跨度 9.00 m
形状 ? Box + pan
制造商 SPXS
平台类型 Starlink
阶段状态 In Orbit
所有者/国家 SPXS/US

Most Searched